{"data":{"norad_id":54855,"intl_designator":"2022-177AM","name":"STARLINK-5416","alt_names":[],"object_type":"PAYLOAD","status":"ACTIVE","operator":null,"country":"US","launch_date":"2022-12-28","launch_site_code":"AFETR","launch_vehicle":null,"mission":null,"orbit_class":"UNKNOWN","rcs_meters":null,"size_class":null,"mass_kg":null,"dimensions":null,"purposes":["comms"],"wikipedia_slug":null,"has_3d_model":false,"image_url":null,"decayed_at":null,"tle_current":{"epoch":"2026-05-25T03:01:27.008256Z","epoch_age_seconds":60057,"freshness":"FRESH","line1":"1 54855U 22177AM  26145.12600704 -.00000188  00000+0  27107-5 0  9993","line2":"2 54855  43.0068  49.6476 0001617 272.8937  87.1729 15.27574296188783","mean_motion":15.27574296,"eccentricity":0.0001617,"inclination_deg":43.0068,"raan_deg":49.6476,"arg_perigee_deg":272.8937,"mean_anomaly_deg":87.1729,"bstar":2.7107e-6,"rev_number":18878,"period_min":94.26710070801,"perigee_km":481.95671936726,"apogee_km":484.17563247435,"semimajor_km":6861.2031759208,"source":"CELESTRAK","updated_at":"2026-05-25T13:38:17.726445Z"}}}